[[{"header":{"parameterUnit":"m.s-1","parameterCategory":1,"la1":30.2991,"la2":30.254,"lo1":-89.0895,"lo2":-89.0444,"dy":0.0017,"dx":0.0017,"nx":28,"ny":28,"refTime":"2025-02-03T03:00:00:Z","depth":0,"parameterNumber":2,"parameterNumberName":"U-component_of_WINDS"},"data":[0,0,0,0,0,0,0,0,0,0,0,0,0,0,0,0,0,0,0,0,0,0,0,0,0,0,0,0,0,0,0,0,0,0,0,0,0,0,0,0,0,0,0,0,0,0,0,0,0,0,0,0,0,0,0,0,0,0,-1.2174,-1.2174,0,-1.2181,-1.2181,-1.2181,-1.2141,-1.214,-1.2139,-1.2138,-1.2148,-1.2149,-1.2151,0,0,0,0,0,0,0,0,0,0,0,0,0,-1.2133,-1.2134,-1.2174,-1.2174,-1.2174,-1.2181,-1.2181,-1.2181,-1.2141,-1.214,-1.2139,-1.2137,-1.2148,-1.2149,-1.2151,0,0,0,0,0,0,0,0,0,0,0,0,0,-1.2147,-1.2134,-1.2174,-1.2155,-1.2154,-1.2181,-1.2181,-1.2181,-1.2142,-1.214,-1.2138,-1.2137,-1.2147,-1.2149,-1.2151,-1.2198,0,0,-1.2157,-1.2158,0,0,0,0,0,0,0,0,-1.2146,-1.2148,-1.2158,-1.2157,-1.2155,-1.2158,-1.217,-1.2187,-1.2142,-1.2146,-1.2138,-1.2136,-1.2153,-1.2155,-1.216,-1.2198,-1.2198,-1.2157,-1.2159,-1.2159,-1.216,0,0,0,0,0,0,0,-1.2145,-1.2148,-1.2177,-1.2158,-1.2156,-1.2148,-1.2148,-1.2173,-1.2159,-1.2146,-1.2143,-1.2144,-1.2152,-1.2158,-1.216,-1.2199,-1.2157,-1.2159,-1.216,-1.2161,-1.2278,-1.228,0,0,0,0,0,0,-1.2146,-1.2147,-1.2177,-1.2177,-1.2146,-1.215,-1.215,-1.2159,-1.2159,-1.2157,-1.2145,-1.2142,-1.2155,-1.2157,-1.216,-1.2215,-1.2159,-1.2161,-1.2162,-1.2276,-1.2278,-1.228,0,0,0,0,0,0,-1.2145,-1.2149,-1.2176,-1.2161,-1.2164,-1.2153,-1.2163,-1.216,-1.2165,-1.2159,-1.2156,-1.2153,-1.2154,-1.2157,-1.2189,-1.2215,-1.2162,-1.2164,-1.2274,-1.2277,-1.2279,-1.2325,0,0,0,0,0,0,-1.2144,-1.2149,-1.2165,-1.2162,-1.2165,-1.2203,-1.2164,-1.2161,-1.2169,-1.2164,-1.2166,-1.2164,-1.2153,-1.2186,-1.2191,-1.2216,-1.2166,-1.2271,-1.2275,-1.2278,-1.2321,-1.2329,-1.2336,0,0,0,0,0,-1.2143,-1.2178,-1.2166,-1.217,-1.2185,-1.2205,-1.2207,-1.2192,-1.2171,-1.2188,-1.2184,-1.2164,-1.2211,-1.2189,-1.2194,-1.2221,-1.227,-1.2274,-1.2278,-1.2318,-1.2327,-1.2335,0,0,0,0,0,0,-1.2185,-1.2177,-1.2163,-1.2198,-1.2203,-1.2198,-1.2219,-1.2203,-1.2214,-1.2209,-1.2192,-1.2193,-1.2228,-1.2228,-1.2204,-1.2267,-1.2237,-1.2243,-1.2265,-1.2275,-1.2282,-1.228,-1.2167,0,0,0,0,0,-1.2198,-1.2214,-1.2207,-1.2238,-1.2241,-1.223,-1.2238,-1.2226,-1.2231,-1.2232,-1.2231,-1.2237,-1.2253,-1.2264,-1.2279,-1.2322,-1.2322,-1.2343,-1.235,-1.2356,-1.2361,-1.2385,-1.2395,-1.2294,-1.2294,-1.2294,0,0,-1.2225,-1.2223,-1.2234,-1.2247,-1.2248,-1.2267,-1.2231,-1.2252,-1.2266,-1.2236,-1.2265,-1.2265,-1.2271,-1.2309,-1.2325,-1.231,-1.2389,-1.2362,-1.2367,-1.2368,-1.2391,-1.24,-1.2409,-1.2297,-1.2297,-1.2296,0,0,-1.2284,-1.2284,-1.231,-1.2314,-1.2317,-1.2309,-1.2316,-1.2315,-1.2313,-1.2342,-1.2321,-1.2339,-1.2367,-1.2372,-1.2378,-1.2443,-1.2426,-1.2449,-1.2487,-1.2511,-1.2519,-1.2526,-1.2549,-1.2558,-1.2454,-1.2454,-1.2454,0,-1.2318,-1.2343,-1.2327,-1.2349,-1.2356,-1.2329,-1.2357,-1.2362,-1.237,-1.2376,-1.2359,-1.2395,-1.2397,-1.2437,-1.2453,-1.2459,-1.2467,-1.2447,-1.2519,-1.2525,-1.2532,-1.2554,-1.2563,-1.2457,-1.2456,-1.2456,-1.2456,0,-1.2385,-1.2403,-1.2425,-1.2432,-1.2442,-1.2467,-1.2456,-1.2469,-1.2457,-1.2453,-1.2484,-1.2487,-1.2502,-1.2511,-1.25,-1.255,-1.254,-1.2521,-1.249,-1.2544,-1.2565,-1.2573,-1.246,-1.2459,-1.2459,-1.2458,0,0,-1.2468,-1.2468,-1.2476,-1.248,-1.2483,-1.2498,-1.2523,-1.2537,-1.2548,-1.2556,-1.2578,-1.2604,-1.2587,-1.2595,-1.2585,-1.2606,-1.2658,-1.2585,-1.2585,-1.2598,-1.2714,-1.2728,-1.2738,-1.2648,-1.2649,-1.2651,-1.2714,0,-1.2526,-1.2566,-1.2554,-1.2596,-1.2613,-1.259,-1.2613,-1.2618,-1.2616,-1.2632,-1.263,-1.2648,-1.2624,-1.2629,-1.2649,-1.2647,-1.2681,-1.2643,-1.2669,-1.267,-1.2667,-1.2748,-1.2762,-1.2822,-1.2722,-1.2723,-1.2724,0,-1.2597,-1.2607,-1.2651,-1.2652,-1.2659,-1.2679,-1.2692,-1.2707,-1.2715,-1.2711,-1.2721,-1.2708,-1.2735,-1.2706,-1.2744,-1.2718,-1.2729,-1.273,-1.2732,-1.2733,-1.2699,-1.2751,-1.284,-1.2849,-1.2737,-1.2736,-1.2735,0,-1.2653,-1.2678,-1.2707,-1.2712,-1.2714,-1.2729,-1.2732,-1.2737,-1.2747,-1.2759,-1.2766,-1.2782,-1.2791,-1.2805,-1.2797,-1.2776,-1.2837,-1.2807,-1.2837,-1.2837,-1.2849,-1.2848,-1.294,-1.2858,-1.2857,-1.2857,-1.2857,0,-1.2718,-1.2746,-1.2733,-1.2751,-1.2782,-1.2769,-1.28,-1.28,-1.2806,-1.2825,-1.2808,-1.2827,-1.2816,-1.2835,-1.283,-1.2863,-1.2867,-1.2867,-1.2865,-1.2867,-1.2868,-1.2873,-1.2868,-1.286,-1.2859,-1.2859,-1.2858,0,-1.2785,-1.2777,-1.2808,-1.2808,-1.281,-1.2832,-1.2834,-1.2852,-1.2849,-1.2874,-1.2879,-1.2875,-1.2897,-1.2891,-1.2915,-1.2912,-1.2954,-1.2947,-1.2951,-1.2949,-1.2979,-1.2976,-1.3077,-1.309,-1.2999,-1.3,-1.3001,0,-1.2826,-1.2846,-1.285,-1.2861,-1.2864,-1.2882,-1.2892,-1.2882,-1.2893,-1.2904,-1.2922,-1.2942,-1.2957,-1.2993,-1.2993,-1.3012,-1.3006,-1.304,-1.3008,-1.3011,-1.3006,-1.3004,-1.3007,-1.3046,-1.3047,-1.3047,-1.3048,0,-1.29,-1.2896,-1.291,-1.2924,-1.2936,-1.2947,-1.2957,-1.2968,-1.2958,-1.2973,-1.2994,-1.3006,-1.303,-1.3051,-1.3069,-1.3073,-1.306,-1.3059,-1.3066,-1.3069,-1.307,-1.307,-1.2967,-1.3056,-1.3055,-1.3054,-1.3054,-1.3054,-1.2955,-1.2973,-1.2978,-1.2995,-1.3001,-1.3011,-1.3028,-1.3028,-1.3045,-1.3063,-1.3057,-1.3082,-1.3091,-1.3114,-1.3121,-1.3142,-1.3129,-1.314,-1.3143,-1.3146,-1.315,-1.3068,-1.3145,-1.3145,-1.3145,-1.3145,-1.3144,0,-1.3028,-1.303,-1.3047,-1.306,-1.3075,-1.306,-1.3071,-1.3084,-1.3106,-1.3115,-1.3131,-1.3157,-1.3178,-1.3181,-1.3201,-1.3217,-1.3212,-1.3223,-1.3221,-1.3223,-1.316,-1.3151,-1.3227,-1.3227,-1.3227,-1.3227,-1.3227,-1.3227,-1.3067,-1.3096,-1.3093,-1.3127,-1.313,-1.3153,-1.316,-1.317,-1.3178,-1.3207,-1.3224,-1.3225,-1.3233,-1.3254,-1.3274,-1.3274,-1.3283,-1.3296,-1.3295,-1.3235,-1.3227,-1.3219,-1.321,-1.3298,-1.3298,-1.3356,-1.3356,-1.3357]},{"header":{"parameterUnit":"m.s-1","parameterCategory":1,"la1":30.2991,"la2":30.254,"lo1":-89.0895,"lo2":-89.0444,"dy":0.0017,"dx":0.0017,"nx":28,"ny":28,"refTime":"2025-02-03T03:00:00:Z","depth":0,"parameterNumber":3,"parameterNumberName":"V-component_of_WINDS"},"data":[0,0,0,0,0,0,0,0,0,0,0,0,0,0,0,0,0,0,0,0,0,0,0,0,0,0,0,0,0,0,0,0,0,0,0,0,0,0,0,0,0,0,0,0,0,0,0,0,0,0,0,0,0,0,0,0,0,0,0.7304,0.7305,0,0.7347,0.7347,0.7348,0.7384,0.7385,0.7385,0.7385,0.7428,0.7429,0.7429,0,0,0,0,0,0,0,0,0,0,0,0,0,0.7255,0.7256,0.7304,0.7305,0.7305,0.7347,0.7347,0.7348,0.7384,0.7385,0.7385,0.7386,0.7428,0.7428,0.7429,0,0,0,0,0,0,0,0,0,0,0,0,0,0.7285,0.7256,0.7304,0.7329,0.7331,0.7347,0.7347,0.7348,0.7384,0.7385,0.7385,0.7386,0.7427,0.7428,0.7429,0.7424,0,0,0.7433,0.7433,0,0,0,0,0,0,0,0,0.7283,0.7287,0.7324,0.7327,0.733,0.7361,0.7346,0.7373,0.7384,0.7364,0.7385,0.7386,0.7405,0.7408,0.7415,0.7426,0.7428,0.7433,0.7434,0.7434,0.7434,0,0,0,0,0,0,0,0.7281,0.7285,0.7321,0.7325,0.7328,0.7337,0.7342,0.7351,0.738,0.7366,0.7368,0.7373,0.7407,0.7413,0.7416,0.7429,0.7433,0.7434,0.7435,0.7435,0.7439,0.7439,0,0,0,0,0,0,0.7275,0.7283,0.732,0.7322,0.7308,0.7338,0.7343,0.735,0.738,0.7386,0.7372,0.7374,0.7411,0.7414,0.7417,0.7414,0.7434,0.7435,0.7436,0.744,0.7439,0.7439,0,0,0,0,0,0,0.7274,0.7278,0.7318,0.7304,0.7309,0.7338,0.7346,0.7351,0.7358,0.7386,0.7391,0.7374,0.7412,0.7416,0.7423,0.7416,0.7436,0.7437,0.7441,0.744,0.7439,0.7407,0,0,0,0,0,0,0.7273,0.7278,0.7276,0.7303,0.731,0.7322,0.7345,0.7351,0.736,0.7363,0.7388,0.7393,0.7413,0.7421,0.7424,0.7418,0.7438,0.7441,0.744,0.7439,0.7409,0.7405,0.7402,0,0,0,0,0,0.7271,0.7264,0.7275,0.728,0.7308,0.7322,0.7326,0.7348,0.7359,0.7357,0.7376,0.7392,0.7416,0.7421,0.7425,0.7419,0.7442,0.7441,0.7439,0.741,0.7406,0.7402,0,0,0,0,0,0,0.7235,0.7268,0.7281,0.7283,0.73,0.7328,0.7327,0.7343,0.7356,0.7358,0.7386,0.7391,0.7395,0.7408,0.7413,0.7417,0.7431,0.7431,0.7408,0.7404,0.7401,0.7398,0.7439,0,0,0,0,0,0.7227,0.7235,0.7265,0.7264,0.7271,0.7298,0.7304,0.7321,0.7338,0.7345,0.7364,0.738,0.7392,0.7399,0.741,0.7411,0.7417,0.7409,0.7405,0.7403,0.7402,0.7404,0.7401,0.7435,0.7435,0.7435,0,0,0.7211,0.7231,0.7234,0.7257,0.7272,0.728,0.7303,0.731,0.7317,0.7346,0.7354,0.7368,0.7389,0.7392,0.7395,0.7403,0.7394,0.7401,0.7399,0.7399,0.7403,0.7399,0.7396,0.7434,0.7434,0.7434,0,0,0.7187,0.7202,0.7204,0.7218,0.724,0.7258,0.7258,0.7285,0.7296,0.7304,0.7327,0.7335,0.7353,0.7367,0.7377,0.7359,0.7376,0.7363,0.7345,0.7347,0.7344,0.7342,0.7337,0.7334,0.7362,0.7362,0.7362,0,0.7165,0.7178,0.7203,0.7209,0.7219,0.7247,0.7249,0.7262,0.7286,0.7292,0.7301,0.7327,0.7342,0.735,0.7346,0.7352,0.7354,0.736,0.7343,0.7341,0.7339,0.7334,0.7332,0.736,0.736,0.736,0.736,0,0.715,0.7159,0.7158,0.7182,0.7191,0.7195,0.7221,0.7228,0.7244,0.7261,0.7269,0.7289,0.7306,0.7309,0.7324,0.732,0.7325,0.7338,0.7353,0.7334,0.733,0.7328,0.7357,0.7358,0.7359,0.7359,0,0,0.7103,0.7142,0.7141,0.7153,0.7179,0.7187,0.7193,0.721,0.7216,0.7232,0.7238,0.7254,0.7267,0.7278,0.7295,0.7296,0.7283,0.731,0.7311,0.7305,0.728,0.727,0.7268,0.7294,0.7293,0.7293,0.7279,0,0.7084,0.7096,0.7119,0.7125,0.7134,0.7161,0.7166,0.7184,0.72,0.721,0.7228,0.7239,0.7255,0.7262,0.7265,0.7284,0.7278,0.7285,0.73,0.73,0.7294,0.7266,0.7255,0.724,0.7277,0.7277,0.7277,0,0.7062,0.7078,0.7084,0.7112,0.7117,0.7121,0.7139,0.7149,0.7169,0.7181,0.7194,0.7213,0.7221,0.7235,0.7247,0.7252,0.7259,0.727,0.727,0.7272,0.7287,0.7268,0.7236,0.7234,0.7274,0.7275,0.7275,0,0.7029,0.7051,0.7058,0.7067,0.7099,0.7102,0.7115,0.7136,0.7146,0.7162,0.7168,0.7185,0.7194,0.7206,0.723,0.7238,0.724,0.7256,0.725,0.725,0.7249,0.7249,0.7219,0.7253,0.7253,0.7253,0.7253,0,0.7005,0.7008,0.7044,0.7048,0.7053,0.7079,0.7083,0.7099,0.7118,0.7126,0.715,0.7157,0.7187,0.7198,0.7216,0.7224,0.7228,0.7238,0.7243,0.7236,0.7235,0.7242,0.7244,0.7253,0.7253,0.7253,0.7253,0,0.6968,0.6992,0.7002,0.7032,0.7039,0.7041,0.7067,0.7073,0.7091,0.7101,0.7105,0.7133,0.7147,0.7172,0.7193,0.7205,0.721,0.7217,0.7203,0.7206,0.7199,0.72,0.7173,0.7171,0.7206,0.7205,0.7205,0,0.6951,0.6954,0.6985,0.6992,0.7005,0.7017,0.7027,0.7053,0.7063,0.7087,0.709,0.7106,0.7121,0.7142,0.7165,0.7181,0.719,0.7179,0.7192,0.7186,0.7191,0.719,0.7191,0.7176,0.7176,0.7175,0.7175,0,0.6919,0.6931,0.6945,0.6963,0.6974,0.699,0.7006,0.7011,0.7042,0.7051,0.7066,0.7078,0.71,0.7116,0.7136,0.715,0.7168,0.7171,0.7171,0.7164,0.7156,0.7161,0.7195,0.7171,0.7172,0.7172,0.7172,0.7172,0.6893,0.6897,0.692,0.6934,0.695,0.6965,0.6972,0.6992,0.7005,0.7025,0.704,0.7055,0.7076,0.7105,0.7118,0.713,0.7138,0.7137,0.7137,0.7137,0.7135,0.7153,0.7133,0.7134,0.7134,0.7134,0.7134,0,0.6863,0.6879,0.6892,0.6915,0.6927,0.6943,0.6963,0.6971,0.6984,0.7003,0.7017,0.7035,0.7051,0.7075,0.7093,0.7098,0.7106,0.7102,0.7102,0.7105,0.7126,0.7125,0.7094,0.7094,0.7094,0.7094,0.7094,0.7094,0.6849,0.6858,0.6872,0.689,0.6906,0.692,0.693,0.6945,0.696,0.6979,0.6993,0.7009,0.703,0.705,0.7066,0.7072,0.7078,0.7071,0.708,0.7099,0.7103,0.7107,0.7106,0.7072,0.7072,0.7058,0.7058,0.7058]}]]